Location: Cahas Mountain Overlook
(37.0833°N, 80.1000°W)
Time: 11:46:51
(UTC-05:00)

SR - Pass Details

Date: 13 December 2023
Orbit: 574 x 867 km, 66.7° (Epoch: 29 February)

Event Time Altitude Azimuth Distance (km) Brightness Sun altitude
Rises 09:52:26 0° 220° (SW) 3,243 ? 21.1°
Reaches altitude 10° 09:54:49 10° 225° (SW) 2,359 ? 21.4°
Maximum altitude 10:00:10 53° 302° (WNW) 1,023 ? 22.0°
Drops below altitude 10° 10:05:50 10° 19° (NNE) 2,499 ? 22.6°
Sets 10:08:26 0° 24° (NNE) 3,452 ? 22.8°
